{"data":{"norad_id":69031,"intl_designator":"2026-101G","name":"STARLINK-37240","alt_names":[],"object_type":"PAYLOAD","status":"ACTIVE","operator":null,"country":"US","launch_date":"2026-05-06","launch_site_code":"AFWTR","launch_vehicle":null,"mission":null,"orbit_class":"UNKNOWN","rcs_meters":null,"size_class":null,"mass_kg":null,"dimensions":null,"purposes":["comms"],"wikipedia_slug":null,"has_3d_model":false,"image_url":null,"decayed_at":null,"tle_current":{"epoch":"2026-09-19T00:20:55.193280Z","epoch_age_seconds":147380,"freshness":"FRESH","line1":"1 69031U 26101G   26262.01452770  .00011447  00000+0  35615-3 0  9992","line2":"2 69031  97.2857 115.5581 0001321  68.2009 291.9374 15.33464440 20952","mean_motion":15.3346444,"eccentricity":0.0001321,"inclination_deg":97.2857,"raan_deg":115.5581,"arg_perigee_deg":68.2009,"mean_anomaly_deg":291.9374,"bstar":0.00035615,"rev_number":2095,"period_min":93.905014191265,"perigee_km":464.58129281588,"apogee_km":466.38937783687,"semimajor_km":6843.6223353264,"source":"CELESTRAK","updated_at":"2026-09-20T09:00:44.059115Z"}}}